Zurück zum Katalog

STARLINK-5983

AktivKommunikationVLEO
NORAD 57224·PAYLOAD·🇺🇸 United States

Gestartet Jul 7, 2023 von Vandenberg Space Force Base

Loading…

Nächste Überflüge (nächste 24 Stunden)

TLE

AktuellSource: CelesTrak SupGP

Epoche: Sep 14, 2026, 20:37 UTC

1 57224C 23094G   26257.85951389  .00061625  00000+0  22321-2 0  2576
2 57224  43.0022  42.1373 0001590 273.2863 297.3579 15.27546783    10

Verfolge STARLINK-5983 in Echtzeit mit AllMySat

Download on the App Store